Location: Asheville, NC
(35.6000°N, 82.5500°W)
Time: 19:23:09
(UTC-04:00)

UWE-3 - Pass Details

Date: 13 February 2018
Orbit: 587 x 683 km, 97.6° (Epoch: 27 May)

Event Time Altitude Azimuth Distance (km) Brightness Sun altitude
Rises 19:47:54 0° 183° (S) 3,015 ? -20.4°
Reaches altitude 10° 19:50:13 10° 190° (S) 2,111 ? -20.9°
Maximum altitude 19:54:37 43° 262° (W) 953 ? -21.8°
Drops below altitude 10° 19:59:04 10° 334° (NNW) 2,126 ? -22.7°
Sets 20:01:25 0° 341° (NNW) 3,040 ? -23.1°
